Regional Weather Roundup
Issued by NWS Newport/Morehead, NC

Current Version | Previous Version | Text Only | Print | Product List | Glossary On
Versions: 1 2 3 4 5 6 7 8 9 10 11 12 13 14 15 16 17 18 19 20 21 22 23 24 25 26 27 28 29 30 31 32 33 34 35 36 37 38 39 40 41 42 43 44 45 46 47 48 49 50
000
ASUS42 KMHX 220513
RWRMHX
WEATHER ROUNDUP FOR EASTERN NORTH CAROLINA
NATIONAL WEATHER SERVICE NEWPORT/MOREHEAD CITY NC
100 AM EDT WED MAR 22 2017

NOTE: "FAIR" INDICATES FEW OR NO CLOUDS BELOW 12,000 FEET
WITH NO SIGNIFICANT WEATHER AND/OR OBSTRUCTIONS TO VISIBILITY

NCZ015>017-031-032-045>047-102-103-220600-
NORTH COAST

CITY           SKY/WX    TMP DP  RH WIND       PRES   REMARKS
EDENTON        LGT RAIN  52  47  81 E5        29.96S
ELIZABETH CITY CLOUDY    51  44  77 S6        29.97R
KITTY HAWK     NOT AVBL
MANTEO         FAIR      48  44  85 SW3       29.96R

$$

NCZ045>047-081-094-103-104-220600-
CENTRAL COAST

CITY           SKY/WX    TMP DP  RH WIND       PRES   REMARKS
FRISCO         FAIR      55  44  66 E6        29.93F

$$

NCZ095-097-098-100-101-220600-
SOUTHERN COAST

CITY           SKY/WX    TMP DP  RH WIND       PRES   REMARKS
BEAUFORT       FAIR      59  58  96 E7        29.89F
CEDAR ISLAND   NOT AVBL
JACKSONVILLE   NOT AVBL
PINEY ISLAND   FAIR     N/A N/A N/A E8        29.90F
WILMINGTON     FAIR      65  59  81 SW8       29.86F


$$

NCZ011>013-027>030-043-044-078>080-089-090>093-098-220600-
COASTAL PLAIN

CITY           SKY/WX    TMP DP  RH WIND       PRES   REMARKS
AHOSKIE        NOT AVBL
CLINTON        HVY RAIN  65  59  82 N16G32    29.90R
ELIZABETHTOWN  FAIR      69  57  66 NW7G16    29.87R
GOLDSBORO      TSTM      63  57  82 W17       29.94R
GREENVILLE     CLOUDY    55  50  82 E12       29.92F
HAVELOCK       CLEAR     56  53  90 SE7       29.89F
KENANSVILLE    MOCLDY    61  57  88 CALM      29.85F
KINSTON        FAIR      59  50  71 NE8       29.88S
NEW BERN       FAIR      56  50  80 E7        29.88F
RICHLANDS      FAIR      58  56  93 E3        29.86F
ROCKY MOUNT    LGT RAIN  56  54  93 NE7       29.91F
WASHINGTON     CLOUDY    55  48  77 E7        29.91F
WHITEVILLE     FAIR      64  58  78 W8        29.89R

$$

AMZ130-135-150-152-154-156-158-170-250-252-270-ANZ085-086-088-633-658-670-220600-
MARINE OBSERVATIONS

STATION/POSITION TIME  TEMP    WIND        PRES    WAVE   SWELL
                       AIR SEA DIR/SP/G            HT/PER HT/PER
                 (UTC) (F)     (DEG/KT/KT) (MB)    (FT/S) (FT/S)
CHESAPEAKE LIGHT NOT AVBL
64 E VA BEACH    0450   49 48  220/  4/  6 1013.5    4/11   5/11
DUCK             0442   49 48  180/  6/  6 1013.6
2 E DUCK         0500      48                N/A     3/11   2/11
OREGON INLET     0442   49 51  140/  1/  2 1014.2
13E OREGON INLT  NOT AVBL
HATTERAS CG      0442   54 55   70/  5/  9 1013.2
DIAMOND BUOY     0450   64 71   40/ 10/ 12 1013.2    5/11   5/11
CAPE LOOKOUT     0500   60     100/  9/  9 1012.1
BEAUFORT LAB     0442   59 53  120/  5/  5 1011.5
30 SE NEW RVR IN 0408   65     220/ 10/ 12 1012.5
30 SE NEW RVR IN 0443      64                N/A     4/12   2/12
27 SE WRIGHTSVLE 0408   66 64  210/ 14/ 19 1011.4
5 SE WRIGHTSVLE  0408   58 56  190/  8/ 14 1011.7
225 S CAPE HAT   0450   71 75  210/ 21/ 27 1015.6    9/ 6   3/12
41 SE CHARLESTON 0450   70 65  220/ 21/ 25 1012.9    5/ 5   2/11

$$




USA.gov is the U.S. government's official web portal to all federal, state and local government web resources and services.